Tracking 25949 objects as of 8-Aug-2022
HD Live streaming from Space Station
objects crossing your sky now

COSMOS 1275 DEB

Track COSMOS 1275 DEB now!
10-day predictions


NORAD ID: 42191
Int'l Code: 1981-053TF
Perigee: 866.4 km
Apogee: 925.3 km
Inclination: 82.8 °
Period: 102.7 minutes
Semi major axis: 7266 km
RCS: Unknown
Launch date: June 4, 1981
Source: Commonwealth of Independent States (former USSR) (CIS)
Launch site: PLESETSK MISSILE AND SPACE COMPLEX (PKMTR)

Note: This is SATELLITE DEBRIS
aabbcc
Your satellite tracking list
Your tracking list is empty




NASA's NSSDC Master Catalog

Two Line Element Set (TLE):
1 42191U 81053TF  22220.11691336  .00001056  00000-0  68422-3 0  9999
2 42191  82.8270 163.9333 0040507 127.3512 233.1360 14.01463027445190
Source of the keplerian elements: AFSPC